Time,TemperatureF,DewpointF,PressureIn,WindDirection,WindDirectionDegrees,WindSpeedMPH,WindSpeedGustMPH,Humidity,HourlyPrecipIn,Conditions,Clouds,dailyrainin,SolarRadiationWatts/m^2,SoftwareType,DateUTC
2013-10-05 00:00:00,47.8,43.8,30.34,WNW,302,0.0,2.0,86,0.00,,---,0.00,0.00,VWS V14.01,2013-10-05 07:00:00,
2013-10-05 00:03:00,47.8,43.8,30.35,WNW,302,0.0,2.0,86,0.00,,---,0.00,0.00,VWS V14.01,2013-10-05 07:03:00,
2013-10-05 00:08:00,47.8,43.8,30.35,WNW,302,1.0,4.0,86,0.00,,---,0.00,0.00,VWS V14.01,2013-10-05 07:08:00,
2013-10-05 00:13:00,47.8,44.1,30.35,WNW,302,0.0,4.0,87,0.00,,---,0.00,0.00,VWS V14.01,2013-10-05 07:13:00,
2013-10-05 00:18:00,47.8,43.8,30.35,WNW,302,0.0,4.0,86,0.00,,---,0.00,0.00,VWS V14.01,2013-10-05 07:18:00,
2013-10-05 00:23:00,47.8,43.8,30.35,WNW,302,0.0,4.0,86,0.00,,---,0.00,0.00,VWS V14.01,2013-10-05 07:23:00,
2013-10-05 00:28:00,47.9,44.2,30.34,WNW,302,0.0,1.0,87,0.00,,---,0.00,0.00,VWS V14.01,2013-10-05 07:28:00,
2013-10-05 00:30:00,47.8,44.1,30.35,WNW,302,0.0,4.0,87,0.00,,---,0.00,0.00,VWS V14.01,2013-10-05 07:30:00,
2013-10-05 00:33:00,47.9,44.2,30.35,WNW,302,0.0,1.0,87,0.00,,---,0.00,0.00,VWS V14.01,2013-10-05 07:33:00,
2013-10-05 00:38:00,47.9,44.2,30.35,WNW,302,0.0,1.0,87,0.00,,---,0.00,0.00,VWS V14.01,2013-10-05 07:38:00,
2013-10-05 00:43:00,47.8,44.1,30.35,WNW,302,0.0,1.0,87,0.00,,---,0.00,0.00,VWS V14.01,2013-10-05 07:43:00,
2013-10-05 00:48:00,47.8,44.1,30.35,WNW,302,0.0,1.0,87,0.00,,---,0.00,0.00,VWS V14.01,2013-10-05 07:48:00,
2013-10-05 00:53:00,47.7,44.0,30.35,WNW,302,0.0,1.0,87,0.00,,---,0.00,0.00,VWS V14.01,2013-10-05 07:53:00,
2013-10-05 00:58:00,47.7,44.0,30.35,WNW,302,0.0,0.0,87,0.00,,---,0.00,0.00,VWS V14.01,2013-10-05 07:58:00,
2013-10-05 01:00:00,47.7,44.0,30.35,WNW,302,0.0,1.0,87,0.00,,---,0.00,0.00,VWS V14.01,2013-10-05 08:00:00,
2013-10-05 01:03:00,47.5,43.8,30.35,WNW,302,0.0,0.0,87,0.00,,---,0.00,0.00,VWS V14.01,2013-10-05 08:03:00,
2013-10-05 01:08:00,47.4,43.7,30.35,WNW,302,0.0,0.0,87,0.00,,---,0.00,0.00,VWS V14.01,2013-10-05 08:08:00,
2013-10-05 01:13:00,47.4,43.7,30.35,WNW,302,0.0,0.0,87,0.00,,---,0.00,0.00,VWS V14.01,2013-10-05 08:13:00,
2013-10-05 01:18:00,47.4,43.7,30.35,WNW,302,0.0,0.0,87,0.00,,---,0.00,0.00,VWS V14.01,2013-10-05 08:18:00,
2013-10-05 01:23:00,47.3,43.6,30.35,WNW,302,0.0,0.0,87,0.00,,---,0.00,0.00,VWS V14.01,2013-10-05 08:23:00,
2013-10-05 01:28:00,47.2,43.5,30.35,WNW,302,0.0,0.0,87,0.00,,---,0.00,0.00,VWS V14.01,2013-10-05 08:28:00,
2013-10-05 01:30:00,47.2,43.5,30.35,WNW,302,0.0,0.0,87,0.00,,---,0.00,0.00,VWS V14.01,2013-10-05 08:30:00,
2013-10-05 01:33:00,47.0,43.3,30.35,WNW,302,0.0,0.0,87,0.00,,---,0.00,0.00,VWS V14.01,2013-10-05 08:33:00,
2013-10-05 01:38:00,46.9,43.2,30.34,WNW,302,0.0,0.0,87,0.00,,---,0.00,0.00,VWS V14.01,2013-10-05 08:38:00,
2013-10-05 01:42:00,46.8,43.1,30.34,WNW,302,0.0,1.0,87,0.00,,---,0.00,0.00,VWS V14.01,2013-10-05 08:42:00,
2013-10-05 01:47:00,46.8,43.1,30.35,WNW,302,0.0,1.0,87,0.00,,---,0.00,0.00,VWS V14.01,2013-10-05 08:47:00,
2013-10-05 01:52:00,46.7,43.3,30.35,WNW,302,0.0,1.0,88,0.00,,---,0.00,0.00,VWS V14.01,2013-10-05 08:52:00,
2013-10-05 01:57:00,46.7,43.3,30.35,WNW,302,0.0,0.0,88,0.00,,---,0.00,0.00,VWS V14.01,2013-10-05 08:57:00,
2013-10-05 02:00:00,46.7,43.3,30.35,WNW,302,0.0,1.0,88,0.00,,---,0.00,0.00,VWS V14.01,2013-10-05 09:00:00,
2013-10-05 02:02:00,46.6,43.2,30.35,WNW,302,0.0,0.0,88,0.00,,---,0.00,0.00,VWS V14.01,2013-10-05 09:02:00,
2013-10-05 02:07:00,46.6,43.2,30.35,WNW,302,0.0,0.0,88,0.00,,---,0.00,0.00,VWS V14.01,2013-10-05 09:07:00,
2013-10-05 02:12:00,46.6,43.2,30.35,WNW,302,0.0,0.0,88,0.00,,---,0.00,0.00,VWS V14.01,2013-10-05 09:12:00,
2013-10-05 02:17:00,46.6,43.2,30.36,WNW,302,0.0,1.0,88,0.00,,---,0.00,0.00,VWS V14.01,2013-10-05 09:17:00,
2013-10-05 02:22:00,46.6,43.2,30.35,WNW,302,0.0,1.0,88,0.00,,---,0.00,0.00,VWS V14.01,2013-10-05 09:22:00,
2013-10-05 02:27:00,46.7,43.3,30.35,WNW,302,0.0,0.0,88,0.00,,---,0.00,0.00,VWS V14.01,2013-10-05 09:27:00,
2013-10-05 02:30:00,46.7,43.3,30.35,WNW,302,0.0,1.0,88,0.00,,---,0.00,0.00,VWS V14.01,2013-10-05 09:30:00,
2013-10-05 02:32:00,46.6,43.2,30.34,WNW,302,0.0,0.0,88,0.00,,---,0.00,0.00,VWS V14.01,2013-10-05 09:32:00,
2013-10-05 02:38:00,46.7,43.3,30.35,WNW,302,0.0,1.0,88,0.00,,---,0.00,0.00,VWS V14.01,2013-10-05 09:38:00,
2013-10-05 02:44:00,46.8,43.7,30.34,WNW,302,0.0,2.0,89,0.00,,---,0.00,0.00,VWS V14.01,2013-10-05 09:44:00,
2013-10-05 02:50:00,46.8,43.7,30.34,WNW,302,0.0,2.0,89,0.00,,---,0.00,0.00,VWS V14.01,2013-10-05 09:50:00,
2013-10-05 02:55:00,46.8,43.7,30.34,WNW,302,0.0,2.0,89,0.00,,---,0.00,0.00,VWS V14.01,2013-10-05 09:55:00,
2013-10-05 03:00:00,46.8,43.7,30.34,WNW,302,0.0,2.0,89,0.00,,---,0.00,0.00,VWS V14.01,2013-10-05 10:00:00,
2013-10-05 03:01:00,46.8,43.7,30.34,WNW,302,0.0,0.0,89,0.00,,---,0.00,0.00,VWS V14.01,2013-10-05 10:01:00,
2013-10-05 03:06:00,46.9,43.8,30.35,WNW,302,0.0,0.0,89,0.00,,---,0.00,0.00,VWS V14.01,2013-10-05 10:06:00,
2013-10-05 03:11:00,46.9,43.8,30.35,WNW,302,0.0,0.0,89,0.00,,---,0.00,0.00,VWS V14.01,2013-10-05 10:11:00,
2013-10-05 03:16:00,46.9,43.8,30.34,WNW,302,0.0,1.0,89,0.00,,---,0.00,0.00,VWS V14.01,2013-10-05 10:16:00,
2013-10-05 03:21:00,47.0,43.9,30.34,WNW,302,0.0,1.0,89,0.00,,---,0.00,0.00,VWS V14.01,2013-10-05 10:21:00,
2013-10-05 03:26:00,47.0,43.9,30.35,WNW,302,0.0,0.0,89,0.00,,---,0.00,0.00,VWS V14.01,2013-10-05 10:26:00,
2013-10-05 03:30:00,47.0,43.9,30.34,WNW,302,0.0,1.0,89,0.00,,---,0.00,0.00,VWS V14.01,2013-10-05 10:30:00,
2013-10-05 03:31:00,47.0,43.9,30.34,WNW,302,0.0,0.0,89,0.00,,---,0.00,0.00,VWS V14.01,2013-10-05 10:31:00,
2013-10-05 03:36:00,47.0,43.9,30.34,WNW,302,0.0,0.0,89,0.00,,---,0.00,0.00,VWS V14.01,2013-10-05 10:36:00,
2013-10-05 03:41:00,47.0,43.9,30.34,WNW,302,1.0,1.0,89,0.00,,---,0.00,0.00,VWS V14.01,2013-10-05 10:41:00,
2013-10-05 03:46:00,47.0,43.9,30.34,WNW,302,0.0,2.0,89,0.00,,---,0.00,0.00,VWS V14.01,2013-10-05 10:46:00,
2013-10-05 03:51:00,46.9,43.8,30.34,WNW,302,0.0,2.0,89,0.00,,---,0.00,0.00,VWS V14.01,2013-10-05 10:51:00,
2013-10-05 03:56:00,46.9,43.8,30.34,WNW,302,0.0,0.0,89,0.00,,---,0.00,0.00,VWS V14.01,2013-10-05 10:56:00,
2013-10-05 04:00:00,46.9,43.8,30.34,WNW,302,0.0,2.0,89,0.00,,---,0.00,0.00,VWS V14.01,2013-10-05 11:00:00,
2013-10-05 04:01:00,46.9,43.8,30.34,WNW,302,0.0,0.0,89,0.00,,---,0.00,0.00,VWS V14.01,2013-10-05 11:01:00,
2013-10-05 04:06:00,46.9,43.8,30.34,WNW,302,0.0,0.0,89,0.00,,---,0.00,0.00,VWS V14.01,2013-10-05 11:06:00,
2013-10-05 04:10:00,46.9,43.8,30.34,WNW,302,0.0,0.0,89,0.00,,---,0.00,0.00,VWS V14.01,2013-10-05 11:10:00,
2013-10-05 04:15:00,46.8,43.7,30.33,WNW,302,0.0,1.0,89,0.00,,---,0.00,0.00,VWS V14.01,2013-10-05 11:15:00,
2013-10-05 04:20:00,46.8,43.7,30.33,WNW,302,0.0,1.0,89,0.00,,---,0.00,0.00,VWS V14.01,2013-10-05 11:20:00,
2013-10-05 04:25:00,46.8,43.7,30.33,WNW,302,0.0,0.0,89,0.00,,---,0.00,0.00,VWS V14.01,2013-10-05 11:25:00,
2013-10-05 04:30:00,46.7,43.6,30.33,WNW,302,0.0,0.0,89,0.00,,---,0.00,0.00,VWS V14.01,2013-10-05 11:30:00,
2013-10-05 04:35:00,46.7,43.6,30.33,WNW,302,0.0,0.0,89,0.00,,---,0.00,0.00,VWS V14.01,2013-10-05 11:35:00,
2013-10-05 04:40:00,46.6,43.5,30.33,WNW,302,0.0,1.0,89,0.00,,---,0.00,0.00,VWS V14.01,2013-10-05 11:40:00,
2013-10-05 04:45:00,46.5,43.4,30.33,WNW,302,0.0,1.0,89,0.00,,---,0.00,0.00,VWS V14.01,2013-10-05 11:45:00,
2013-10-05 04:50:00,46.4,43.3,30.33,WNW,302,0.0,1.0,89,0.00,,---,0.00,0.00,VWS V14.01,2013-10-05 11:50:00,
2013-10-05 04:55:00,46.4,43.3,30.33,WNW,302,0.0,0.0,89,0.00,,---,0.00,0.00,VWS V14.01,2013-10-05 11:55:00,
2013-10-05 05:00:00,46.3,43.2,30.33,WNW,302,0.0,1.0,89,0.00,,---,0.00,0.00,VWS V14.01,2013-10-05 12:00:00,
2013-10-05 05:05:00,46.3,43.2,30.33,WNW,302,0.0,1.0,89,0.00,,---,0.00,0.00,VWS V14.01,2013-10-05 12:05:00,
2013-10-05 05:10:00,46.1,43.0,30.33,WNW,302,0.0,1.0,89,0.00,,---,0.00,0.00,VWS V14.01,2013-10-05 12:10:00,
2013-10-05 05:15:00,46.0,43.0,30.33,WNW,302,0.0,1.0,89,0.00,,---,0.00,0.00,VWS V14.01,2013-10-05 12:15:00,
2013-10-05 05:20:00,45.9,42.5,30.33,WNW,302,0.0,1.0,88,0.00,,---,0.00,0.00,VWS V14.01,2013-10-05 12:20:00,
2013-10-05 05:25:00,45.8,42.8,30.33,WNW,302,0.0,0.0,89,0.00,,---,0.00,0.00,VWS V14.01,2013-10-05 12:25:00,
2013-10-05 05:30:00,45.7,42.7,30.33,WNW,302,0.0,0.0,89,0.00,,---,0.00,0.00,VWS V14.01,2013-10-05 12:30:00,
2013-10-05 05:35:00,45.5,42.2,30.33,WNW,302,0.0,0.0,88,0.00,,---,0.00,0.00,VWS V14.01,2013-10-05 12:35:00,
2013-10-05 05:40:00,45.4,42.1,30.33,WNW,302,0.0,0.0,88,0.00,,---,0.00,0.00,VWS V14.01,2013-10-05 12:40:00,
2013-10-05 05:45:00,45.3,42.0,30.33,WNW,302,0.0,0.0,88,0.00,,---,0.00,0.00,VWS V14.01,2013-10-05 12:45:00,
2013-10-05 05:50:00,45.2,42.2,30.34,WNW,302,0.0,0.0,89,0.00,,---,0.00,0.00,VWS V14.01,2013-10-05 12:50:00,
2013-10-05 05:55:00,45.1,42.1,30.33,WNW,302,0.0,0.0,89,0.00,,---,0.00,0.00,VWS V14.01,2013-10-05 12:55:00,
2013-10-05 06:00:00,45.0,42.0,30.33,WNW,302,0.0,0.0,89,0.00,,---,0.00,0.00,VWS V14.01,2013-10-05 13:00:00,
2013-10-05 06:05:00,45.0,42.0,30.33,WNW,302,0.0,0.0,89,0.00,,---,0.00,0.00,VWS V14.01,2013-10-05 13:05:00,
2013-10-05 06:10:00,45.0,42.0,30.33,WNW,302,0.0,0.0,89,0.00,,---,0.00,0.00,VWS V14.01,2013-10-05 13:10:00,
2013-10-05 06:15:00,44.9,41.9,30.34,WNW,302,0.0,0.0,89,0.00,,---,0.00,0.00,VWS V14.01,2013-10-05 13:15:00,
2013-10-05 06:20:00,44.9,41.9,30.34,WNW,302,0.0,1.0,89,0.00,,---,0.00,0.00,VWS V14.01,2013-10-05 13:20:00,
2013-10-05 06:25:00,44.9,41.9,30.34,WNW,302,0.0,1.0,89,0.00,,---,0.00,0.00,VWS V14.01,2013-10-05 13:25:00,
2013-10-05 06:30:00,44.9,41.9,30.34,WNW,302,0.0,1.0,89,0.00,,---,0.00,0.00,VWS V14.01,2013-10-05 13:30:00,
2013-10-05 06:35:00,45.0,42.0,30.34,WNW,302,0.0,1.0,89,0.00,,---,0.00,0.00,VWS V14.01,2013-10-05 13:35:00,
2013-10-05 06:40:00,45.0,42.0,30.34,WNW,302,0.0,1.0,89,0.00,,---,0.00,0.00,VWS V14.01,2013-10-05 13:40:00,
2013-10-05 06:45:00,45.0,42.0,30.34,WNW,302,1.0,1.0,89,0.00,,---,0.00,0.00,VWS V14.01,2013-10-05 13:45:00,
2013-10-05 06:50:00,45.0,42.0,30.34,WNW,302,1.0,2.0,89,0.00,,---,0.00,0.00,VWS V14.01,2013-10-05 13:50:00,
2013-10-05 06:55:00,44.9,41.9,30.34,WNW,302,0.0,2.0,89,0.00,,---,0.00,0.00,VWS V14.01,2013-10-05 13:55:00,
2013-10-05 07:00:00,44.9,41.9,30.34,WNW,302,0.0,0.0,89,0.00,,---,0.00,0.00,VWS V14.01,2013-10-05 14:00:00,
2013-10-05 07:05:00,44.9,41.9,30.33,WNW,302,0.0,1.0,89,0.00,,---,0.00,0.00,VWS V14.01,2013-10-05 14:05:00,
2013-10-05 07:10:00,44.9,41.9,30.34,WNW,302,0.0,1.0,89,0.00,,---,0.00,0.00,VWS V14.01,2013-10-05 14:10:00,
2013-10-05 07:15:00,44.9,41.9,30.33,WNW,302,0.0,1.0,89,0.00,,---,0.00,0.00,VWS V14.01,2013-10-05 14:15:00,
2013-10-05 07:20:00,45.0,42.0,30.33,WNW,302,0.0,1.0,89,0.00,,---,0.00,5.00,VWS V14.01,2013-10-05 14:20:00,
2013-10-05 07:25:00,44.9,41.9,30.33,WNW,302,0.0,1.0,89,0.00,,---,0.00,5.00,VWS V14.01,2013-10-05 14:25:00,
2013-10-05 07:30:00,44.9,42.2,30.33,WNW,302,0.0,0.0,90,0.00,,---,0.00,9.00,VWS V14.01,2013-10-05 14:30:00,
2013-10-05 07:35:00,44.9,42.2,30.33,WNW,302,0.0,1.0,90,0.00,,---,0.00,12.00,VWS V14.01,2013-10-05 14:35:00,
2013-10-05 07:40:00,44.9,42.2,30.33,WNW,302,5.0,5.0,90,0.00,,---,0.00,16.00,VWS V14.01,2013-10-05 14:40:00,
2013-10-05 07:45:00,45.0,42.2,30.33,WNW,302,0.0,5.0,90,0.00,,---,0.00,19.00,VWS V14.01,2013-10-05 14:45:00,
2013-10-05 07:50:00,45.1,42.3,30.33,WNW,302,0.0,5.0,90,0.00,,---,0.00,21.00,VWS V14.01,2013-10-05 14:50:00,
2013-10-05 07:55:00,45.2,42.5,30.33,WNW,302,0.0,5.0,90,0.00,,---,0.00,21.00,VWS V14.01,2013-10-05 14:55:00,
2013-10-05 08:00:00,45.3,42.5,30.33,WNW,302,0.0,0.0,90,0.00,,---,0.00,23.00,VWS V14.01,2013-10-05 15:00:00,
2013-10-05 08:05:00,45.4,42.6,30.33,WNW,302,0.0,0.0,90,0.00,,---,0.00,23.00,VWS V14.01,2013-10-05 15:05:00,
2013-10-05 08:10:00,45.5,42.7,30.33,WNW,302,0.0,0.0,90,0.00,,---,0.00,25.00,VWS V14.01,2013-10-05 15:10:00,
2013-10-05 08:15:00,45.7,42.9,30.33,WNW,302,0.0,0.0,90,0.00,,---,0.00,26.00,VWS V14.01,2013-10-05 15:15:00,
2013-10-05 08:20:00,45.8,43.0,30.33,WNW,302,0.0,0.0,90,0.00,,---,0.00,28.00,VWS V14.01,2013-10-05 15:20:00,
2013-10-05 08:25:00,46.0,43.2,30.33,WNW,302,0.0,0.0,90,0.00,,---,0.00,30.00,VWS V14.01,2013-10-05 15:25:00,
2013-10-05 08:30:00,46.2,43.4,30.33,WNW,302,0.0,0.0,90,0.00,,---,0.00,33.00,VWS V14.01,2013-10-05 15:30:00,
2013-10-05 08:35:00,46.3,43.5,30.33,WNW,302,0.0,0.0,90,0.00,,---,0.00,35.00,VWS V14.01,2013-10-05 15:35:00,
2013-10-05 08:40:00,46.5,43.7,30.33,WNW,302,0.0,0.0,90,0.00,,---,0.00,35.00,VWS V14.01,2013-10-05 15:40:00,
2013-10-05 08:45:00,46.7,43.9,30.33,WNW,302,0.0,0.0,90,0.00,,---,0.00,39.00,VWS V14.01,2013-10-05 15:45:00,
2013-10-05 08:50:00,46.9,44.1,30.33,WNW,302,0.0,0.0,90,0.00,,---,0.00,49.00,VWS V14.01,2013-10-05 15:50:00,
2013-10-05 08:55:00,47.0,44.2,30.33,WNW,302,0.0,0.0,90,0.00,,---,0.00,46.00,VWS V14.01,2013-10-05 15:55:00,
2013-10-05 09:00:00,47.2,44.4,30.33,WNW,302,0.0,0.0,90,0.00,,---,0.00,44.00,VWS V14.01,2013-10-05 16:00:00,
2013-10-05 09:05:00,47.4,44.6,30.32,WNW,302,0.0,0.0,90,0.00,,---,0.00,39.00,VWS V14.01,2013-10-05 16:05:00,
2013-10-05 09:10:00,47.6,44.8,30.32,WNW,302,0.0,0.0,90,0.00,,---,0.00,49.00,VWS V14.01,2013-10-05 16:10:00,
2013-10-05 09:15:00,47.8,45.0,30.32,WNW,302,0.0,1.0,90,0.00,,---,0.00,44.00,VWS V14.01,2013-10-05 16:15:00,
2013-10-05 09:20:00,48.0,45.2,30.32,WNW,302,0.0,1.0,90,0.00,,---,0.00,54.00,VWS V14.01,2013-10-05 16:20:00,
2013-10-05 09:25:00,48.2,45.4,30.32,WNW,302,1.0,4.0,90,0.00,,---,0.00,56.00,VWS V14.01,2013-10-05 16:25:00,
2013-10-05 09:30:00,48.4,45.6,30.32,WNW,302,0.0,2.0,90,0.00,,---,0.00,56.00,VWS V14.01,2013-10-05 16:30:00,
2013-10-05 09:35:00,48.5,45.7,30.32,WNW,302,0.0,2.0,90,0.00,,---,0.00,54.00,VWS V14.01,2013-10-05 16:35:00,
2013-10-05 09:40:00,48.7,45.9,30.33,WNW,302,0.0,4.0,90,0.00,,---,0.00,53.00,VWS V14.01,2013-10-05 16:40:00,
2013-10-05 09:45:00,48.8,46.0,30.33,WNW,302,0.0,4.0,90,0.00,,---,0.00,51.00,VWS V14.01,2013-10-05 16:45:00,
2013-10-05 09:50:00,48.9,46.1,30.32,WNW,302,0.0,4.0,90,0.00,,---,0.00,54.00,VWS V14.01,2013-10-05 16:50:00,
2013-10-05 09:55:00,49.1,46.3,30.32,WNW,302,0.0,4.0,90,0.00,,---,0.00,56.00,VWS V14.01,2013-10-05 16:55:00,
2013-10-05 10:00:00,49.4,46.6,30.32,WNW,302,0.0,4.0,90,0.00,,---,0.00,54.00,VWS V14.01,2013-10-05 17:00:00,
2013-10-05 10:05:00,49.8,47.0,30.32,WNW,302,0.0,4.0,90,0.00,,---,0.00,53.00,VWS V14.01,2013-10-05 17:05:00,
2013-10-05 10:10:00,50.1,47.3,30.32,WNW,302,0.0,4.0,90,0.00,,---,0.00,56.00,VWS V14.01,2013-10-05 17:10:00,
2013-10-05 10:15:00,50.3,47.5,30.32,WNW,302,0.0,4.0,90,0.00,,---,0.00,54.00,VWS V14.01,2013-10-05 17:15:00,
2013-10-05 10:20:00,50.5,47.7,30.32,WNW,302,0.0,4.0,90,0.00,,---,0.00,54.00,VWS V14.01,2013-10-05 17:20:00,
2013-10-05 10:25:00,50.8,48.0,30.32,WNW,302,0.0,4.0,90,0.00,,---,0.00,54.00,VWS V14.01,2013-10-05 17:25:00,
2013-10-05 10:30:00,51.1,48.9,30.32,WNW,302,1.0,1.0,92,0.00,,---,0.00,54.00,VWS V14.01,2013-10-05 17:30:00,
2013-10-05 10:35:00,51.4,48.0,30.32,WNW,302,0.0,4.0,88,0.00,,---,0.00,54.00,VWS V14.01,2013-10-05 17:35:00,
2013-10-05 10:40:00,51.8,48.1,30.32,WNW,302,1.0,4.0,87,0.00,,---,0.00,58.00,VWS V14.01,2013-10-05 17:40:00,
2013-10-05 10:45:00,52.2,48.2,30.32,WNW,302,0.0,6.0,86,0.00,,---,0.00,67.00,VWS V14.01,2013-10-05 17:45:00,
2013-10-05 10:50:00,52.6,48.2,30.32,WNW,302,1.0,6.0,85,0.00,,---,0.00,63.00,VWS V14.01,2013-10-05 17:50:00,
2013-10-05 10:55:00,53.0,48.3,30.32,WNW,302,4.0,6.0,84,0.00,,---,0.00,56.00,VWS V14.01,2013-10-05 17:55:00,
2013-10-05 11:00:00,53.4,48.4,30.31,WNW,302,3.0,5.0,83,0.00,,---,0.00,54.00,VWS V14.01,2013-10-05 18:00:00,
2013-10-05 11:05:00,53.7,48.0,30.31,WNW,302,1.0,6.0,81,0.00,,---,0.00,53.00,VWS V14.01,2013-10-05 18:05:00,
2013-10-05 11:10:00,53.8,47.5,30.30,WNW,302,4.0,6.0,79,0.00,,---,0.00,53.00,VWS V14.01,2013-10-05 18:10:00,
2013-10-05 11:15:00,54.0,47.0,30.30,WNW,302,0.0,6.0,77,0.00,,---,0.00,54.00,VWS V14.01,2013-10-05 18:15:00,
2013-10-05 11:20:00,54.2,46.1,30.30,WNW,302,4.0,6.0,74,0.00,,---,0.00,53.00,VWS V14.01,2013-10-05 18:20:00,
2013-10-05 11:25:00,54.4,45.2,30.30,WNW,302,0.0,6.0,71,0.00,,---,0.00,49.00,VWS V14.01,2013-10-05 18:25:00,
2013-10-05 11:30:00,54.8,44.5,30.30,WNW,302,4.0,5.0,68,0.00,,---,0.00,46.00,VWS V14.01,2013-10-05 18:30:00,
2013-10-05 11:35:00,55.1,45.5,30.30,WNW,302,1.0,5.0,70,0.00,,---,0.00,42.00,VWS V14.01,2013-10-05 18:35:00,
2013-10-05 11:40:00,55.5,46.3,30.30,WNW,302,5.0,6.0,71,0.00,,---,0.00,40.00,VWS V14.01,2013-10-05 18:40:00,
2013-10-05 11:45:00,55.8,45.8,30.30,WNW,302,3.0,6.0,69,0.00,,---,0.00,40.00,VWS V14.01,2013-10-05 18:45:00,
2013-10-05 11:50:00,56.1,46.1,30.30,WNW,302,2.0,6.0,69,0.00,,---,0.00,37.00,VWS V14.01,2013-10-05 18:50:00,
2013-10-05 11:55:00,56.5,46.1,30.30,WNW,302,4.0,6.0,68,0.00,,---,0.00,37.00,VWS V14.01,2013-10-05 18:55:00,
2013-10-05 12:00:00,56.8,46.8,30.30,WNW,302,3.0,6.0,69,0.00,,---,0.00,35.00,VWS V14.01,2013-10-05 19:00:00,
2013-10-05 12:05:00,57.1,46.7,30.30,North,352,3.0,7.0,68,0.00,,---,0.00,33.00,VWS V14.01,2013-10-05 19:05:00,
2013-10-05 12:10:00,57.3,46.5,30.29,North,359,1.0,8.0,67,0.00,,---,0.00,32.00,VWS V14.01,2013-10-05 19:10:00,
2013-10-05 12:16:00,57.5,46.2,30.29,North,358,4.0,8.0,66,0.00,,---,0.00,33.00,VWS V14.01,2013-10-05 19:16:00,
2013-10-05 12:21:00,57.4,46.5,30.29,North,356,5.0,8.0,67,0.00,,---,0.00,33.00,VWS V14.01,2013-10-05 19:21:00,
2013-10-05 12:26:00,57.3,46.5,30.28,North,355,2.0,6.0,67,0.00,,---,0.00,33.00,VWS V14.01,2013-10-05 19:26:00,
2013-10-05 12:30:00,57.3,46.5,30.29,North,355,5.0,8.0,67,0.00,,---,0.00,32.00,VWS V14.01,2013-10-05 19:30:00,
2013-10-05 12:31:00,57.1,46.7,30.29,North,355,0.0,6.0,68,0.00,,---,0.00,35.00,VWS V14.01,2013-10-05 19:31:00,
2013-10-05 12:36:00,57.1,46.3,30.29,North,358,5.0,7.0,67,0.00,,---,0.00,35.00,VWS V14.01,2013-10-05 19:36:00,
2013-10-05 12:41:00,57.1,46.7,30.28,North,360,1.0,7.0,68,0.00,,---,0.00,39.00,VWS V14.01,2013-10-05 19:41:00,
2013-10-05 12:46:00,57.3,46.8,30.29,North,358,3.0,7.0,68,0.00,,---,0.00,37.00,VWS V14.01,2013-10-05 19:46:00,
2013-10-05 12:51:00,57.5,46.6,30.28,North,353,1.0,7.0,67,0.00,,---,0.00,35.00,VWS V14.01,2013-10-05 19:51:00,
2013-10-05 12:56:00,57.7,46.4,30.27,North,353,2.0,4.0,66,0.00,,---,0.00,33.00,VWS V14.01,2013-10-05 19:56:00,
2013-10-05 13:00:00,57.7,46.4,30.27,North,353,4.0,7.0,66,0.00,,---,0.00,33.00,VWS V14.01,2013-10-05 20:00:00,
2013-10-05 13:01:00,57.8,47.7,30.27,North,353,1.0,5.0,69,0.00,,---,0.00,30.00,VWS V14.01,2013-10-05 20:01:00,
2013-10-05 13:06:00,58.0,47.5,30.27,North,353,4.0,5.0,68,0.00,,---,0.00,25.00,VWS V14.01,2013-10-05 20:06:00,
2013-10-05 13:11:00,58.2,47.7,30.27,North,353,0.0,5.0,68,0.00,,---,0.00,33.00,VWS V14.01,2013-10-05 20:11:00,
2013-10-05 13:16:00,58.4,47.9,30.26,North,353,1.0,5.0,68,0.00,,---,0.00,32.00,VWS V14.01,2013-10-05 20:16:00,
2013-10-05 13:21:00,58.7,47.4,30.26,North,353,1.0,5.0,66,0.00,,---,0.00,30.00,VWS V14.01,2013-10-05 20:21:00,
2013-10-05 13:26:00,59.0,48.1,30.26,North,353,3.0,5.0,67,0.00,,---,0.00,32.00,VWS V14.01,2013-10-05 20:26:00,
2013-10-05 13:30:00,59.0,48.5,30.26,North,353,5.0,5.0,68,0.00,,---,0.00,32.00,VWS V14.01,2013-10-05 20:30:00,
2013-10-05 13:31:00,59.3,48.0,30.26,North,353,2.0,5.0,66,0.00,,---,0.00,33.00,VWS V14.01,2013-10-05 20:31:00,
2013-10-05 13:36:00,59.7,48.3,30.26,North,355,0.0,6.0,66,0.00,,---,0.00,32.00,VWS V14.01,2013-10-05 20:36:00,
2013-10-05 13:41:00,60.0,47.8,30.25,North,352,4.0,7.0,64,0.00,,---,0.00,28.00,VWS V14.01,2013-10-05 20:41:00,
2013-10-05 13:46:00,60.2,46.7,30.25,NNW,348,6.0,8.0,61,0.00,,---,0.00,30.00,VWS V14.01,2013-10-05 20:46:00,
2013-10-05 13:51:00,60.4,47.3,30.25,North,351,6.0,8.0,62,0.00,,---,0.00,28.00,VWS V14.01,2013-10-05 20:51:00,
2013-10-05 13:56:00,60.6,48.0,30.24,North,360,1.0,5.0,63,0.00,,---,0.00,28.00,VWS V14.01,2013-10-05 20:56:00,
2013-10-05 14:00:00,60.6,48.0,30.25,North,360,5.0,8.0,63,0.00,,---,0.00,28.00,VWS V14.01,2013-10-05 21:00:00,
2013-10-05 14:01:00,60.8,47.3,30.24,North,359,4.0,7.0,61,0.00,,---,0.00,26.00,VWS V14.01,2013-10-05 21:01:00,
2013-10-05 14:06:00,60.9,46.9,30.24,North,358,1.0,7.0,60,0.00,,---,0.00,26.00,VWS V14.01,2013-10-05 21:06:00,
2013-10-05 14:11:00,61.1,47.1,30.24,North,358,3.0,7.0,60,0.00,,---,0.00,26.00,VWS V14.01,2013-10-05 21:11:00,
2013-10-05 14:16:00,61.3,48.2,30.24,North,3,6.0,7.0,62,0.00,,---,0.00,26.00,VWS V14.01,2013-10-05 21:16:00,
2013-10-05 14:21:00,61.4,47.8,30.24,North,359,5.0,8.0,61,0.00,,---,0.00,26.00,VWS V14.01,2013-10-05 21:21:00,
2013-10-05 14:26:00,61.6,47.2,30.23,North,356,7.0,7.0,59,0.00,,---,0.00,28.00,VWS V14.01,2013-10-05 21:26:00,
2013-10-05 14:30:00,61.6,47.6,30.23,North,358,0.0,9.0,60,0.00,,---,0.00,28.00,VWS V14.01,2013-10-05 21:30:00,
2013-10-05 14:31:00,61.8,46.9,30.23,North,357,7.0,8.0,58,0.00,,---,0.00,26.00,VWS V14.01,2013-10-05 21:31:00,
2013-10-05 14:36:00,62.0,46.6,30.23,North,8,6.0,9.0,57,0.00,,---,0.00,25.00,VWS V14.01,2013-10-05 21:36:00,
2013-10-05 14:41:00,62.0,47.5,30.23,North,9,2.0,9.0,59,0.00,,---,0.00,23.00,VWS V14.01,2013-10-05 21:41:00,
2013-10-05 14:46:00,62.1,47.2,30.22,NNW,341,10.0,10.0,58,0.00,,---,0.00,23.00,VWS V14.01,2013-10-05 21:46:00,
2013-10-05 14:51:00,62.2,46.8,30.22,North,349,5.0,10.0,57,0.00,,---,0.00,21.00,VWS V14.01,2013-10-05 21:51:00,
2013-10-05 14:56:00,62.3,46.9,30.22,North,6,6.0,6.0,57,0.00,,---,0.00,21.00,VWS V14.01,2013-10-05 21:56:00,
2013-10-05 15:00:00,62.3,47.3,30.23,North,10,0.0,10.0,58,0.00,,---,0.00,23.00,VWS V14.01,2013-10-05 22:00:00,
2013-10-05 15:01:00,62.5,46.6,30.22,North,352,6.0,8.0,56,0.00,,---,0.00,21.00,VWS V14.01,2013-10-05 22:01:00,
2013-10-05 15:06:00,62.8,45.4,30.22,NNW,347,5.0,11.0,53,0.00,,---,0.00,21.00,VWS V14.01,2013-10-05 22:06:00,
2013-10-05 15:11:00,63.0,45.6,30.23,North,357,7.0,11.0,53,0.00,,---,0.00,19.00,VWS V14.01,2013-10-05 22:11:00,
2013-10-05 15:16:00,63.3,45.9,30.22,NNW,345,5.0,11.0,53,0.00,,---,0.00,18.00,VWS V14.01,2013-10-05 22:16:00,
2013-10-05 15:21:00,63.4,44.5,30.22,North,7,7.0,11.0,50,0.00,,---,0.00,19.00,VWS V14.01,2013-10-05 22:21:00,
2013-10-05 15:26:00,63.5,45.6,30.22,NNE,26,5.0,7.0,52,0.00,,---,0.00,19.00,VWS V14.01,2013-10-05 22:26:00,
2013-10-05 15:30:00,63.5,45.6,30.22,NE,36,0.0,11.0,52,0.00,,---,0.00,19.00,VWS V14.01,2013-10-05 22:30:00,
2013-10-05 15:31:00,63.7,46.3,30.22,North,350,2.0,10.0,53,0.00,,---,0.00,19.00,VWS V14.01,2013-10-05 22:31:00,
2013-10-05 15:36:00,63.8,46.4,30.22,NNE,16,8.0,10.0,53,0.00,,---,0.00,19.00,VWS V14.01,2013-10-05 22:36:00,
2013-10-05 15:41:00,63.9,46.0,30.21,NNE,12,3.0,10.0,52,0.00,,---,0.00,19.00,VWS V14.01,2013-10-05 22:41:00,
2013-10-05 15:46:00,64.1,46.6,30.21,NNE,25,0.0,10.0,53,0.00,,---,0.00,19.00,VWS V14.01,2013-10-05 22:46:00,
2013-10-05 15:51:00,64.1,46.1,30.21,NNE,17,6.0,10.0,52,0.00,,---,0.00,19.00,VWS V14.01,2013-10-05 22:51:00,
2013-10-05 15:56:00,64.1,46.1,30.21,NNE,15,5.0,5.0,52,0.00,,---,0.00,19.00,VWS V14.01,2013-10-05 22:56:00,
2013-10-05 16:00:00,64.2,46.2,30.21,NNE,15,5.0,10.0,52,0.00,,---,0.00,19.00,VWS V14.01,2013-10-05 23:00:00,
2013-10-05 16:01:00,64.3,47.3,30.20,NNE,33,5.0,9.0,54,0.00,,---,0.00,19.00,VWS V14.01,2013-10-05 23:01:00,
2013-10-05 16:06:00,64.4,46.4,30.20,NNE,23,0.0,9.0,52,0.00,,---,0.00,18.00,VWS V14.01,2013-10-05 23:06:00,
2013-10-05 16:11:00,64.4,46.4,30.20,NNE,21,3.0,9.0,52,0.00,,---,0.00,12.00,VWS V14.01,2013-10-05 23:11:00,
2013-10-05 16:16:00,64.3,46.3,30.20,NNE,15,5.0,9.0,52,0.00,,---,0.00,21.00,VWS V14.01,2013-10-05 23:16:00,
2013-10-05 16:21:00,64.2,46.2,30.20,NNE,23,0.0,9.0,52,0.00,,---,0.00,26.00,VWS V14.01,2013-10-05 23:21:00,
2013-10-05 16:26:00,64.2,46.7,30.20,NNE,23,1.0,1.0,53,0.00,,---,0.00,25.00,VWS V14.01,2013-10-05 23:26:00,
2013-10-05 16:30:00,64.2,46.7,30.20,NNE,23,0.0,9.0,53,0.00,,---,0.00,25.00,VWS V14.01,2013-10-05 23:30:00,
2013-10-05 16:31:00,64.2,47.2,30.20,NNE,23,7.0,7.0,54,0.00,,---,0.00,25.00,VWS V14.01,2013-10-05 23:31:00,
2013-10-05 16:36:00,64.3,46.8,30.19,North,2,0.0,8.0,53,0.00,,---,0.00,25.00,VWS V14.01,2013-10-05 23:36:00,
2013-10-05 16:41:00,64.4,46.9,30.19,North,6,0.0,8.0,53,0.00,,---,0.00,25.00,VWS V14.01,2013-10-05 23:41:00,
2013-10-05 16:46:00,64.4,45.9,30.19,NNE,17,4.0,8.0,51,0.00,,---,0.00,23.00,VWS V14.01,2013-10-05 23:46:00,
2013-10-05 16:51:00,64.5,44.9,30.19,NNW,341,4.0,9.0,49,0.00,,---,0.00,19.00,VWS V14.01,2013-10-05 23:51:00,
2013-10-05 16:56:00,64.5,45.5,30.19,North,2,1.0,3.0,50,0.00,,---,0.00,23.00,VWS V14.01,2013-10-05 23:56:00,
2013-10-05 17:00:00,64.5,45.5,30.19,North,2,3.0,10.0,50,0.00,,---,0.00,23.00,VWS V14.01,2013-10-06 00:00:00,
2013-10-05 17:01:00,64.5,47.0,30.19,North,352,0.0,8.0,53,0.00,,---,0.00,23.00,VWS V14.01,2013-10-06 00:01:00,
2013-10-05 17:06:00,64.4,47.9,30.19,NNE,12,6.0,9.0,55,0.00,,---,0.00,28.00,VWS V14.01,2013-10-06 00:06:00,
2013-10-05 17:11:00,64.3,46.8,30.19,North,351,0.0,9.0,53,0.00,,---,0.00,28.00,VWS V14.01,2013-10-06 00:11:00,
2013-10-05 17:16:00,64.1,46.6,30.19,NNE,13,6.0,9.0,53,0.00,,---,0.00,18.00,VWS V14.01,2013-10-06 00:16:00,
2013-10-05 17:21:00,64.0,47.0,30.18,NNE,20,5.0,9.0,54,0.00,,---,0.00,26.00,VWS V14.01,2013-10-06 00:21:00,
2013-10-05 17:25:00,63.8,46.8,30.18,North,349,2.0,3.0,54,0.00,,---,0.00,14.00,VWS V14.01,2013-10-06 00:25:00,
2013-10-05 17:30:00,63.6,46.2,30.18,NNE,15,1.0,7.0,53,0.00,,---,0.00,18.00,VWS V14.01,2013-10-06 00:30:00,
2013-10-05 17:35:00,63.5,46.6,30.18,NNE,20,5.0,7.0,54,0.00,,---,0.00,16.00,VWS V14.01,2013-10-06 00:35:00,
2013-10-05 17:40:00,63.2,46.3,30.18,NNE,15,4.0,7.0,54,0.00,,---,0.00,14.00,VWS V14.01,2013-10-06 00:40:00,
2013-10-05 17:45:00,63.0,46.6,30.18,NNE,17,7.0,7.0,55,0.00,,---,0.00,14.00,VWS V14.01,2013-10-06 00:45:00,
2013-10-05 17:50:00,62.8,46.9,30.18,NNE,29,0.0,9.0,56,0.00,,---,0.00,12.00,VWS V14.01,2013-10-06 00:50:00,
2013-10-05 17:55:00,62.5,47.1,30.17,NNE,22,0.0,9.0,57,0.00,,---,0.00,12.00,VWS V14.01,2013-10-06 00:55:00,
2013-10-05 18:00:00,62.2,46.8,30.17,North,10,5.0,8.0,57,0.00,,---,0.00,11.00,VWS V14.01,2013-10-06 01:00:00,
2013-10-05 18:05:00,61.9,46.5,30.17,NNE,12,0.0,8.0,57,0.00,,---,0.00,9.00,VWS V14.01,2013-10-06 01:05:00,
2013-10-05 18:10:00,61.6,46.7,30.17,NNE,12,1.0,8.0,58,0.00,,---,0.00,7.00,VWS V14.01,2013-10-06 01:10:00,
2013-10-05 18:15:00,61.3,46.4,30.17,NNE,12,0.0,8.0,58,0.00,,---,0.00,5.00,VWS V14.01,2013-10-06 01:15:00,
2013-10-05 18:20:00,60.9,46.5,30.17,NNE,12,0.0,8.0,59,0.00,,---,0.00,5.00,VWS V14.01,2013-10-06 01:20:00,
2013-10-05 18:25:00,60.6,46.2,30.17,NNE,12,2.0,8.0,59,0.00,,---,0.00,0.00,VWS V14.01,2013-10-06 01:25:00,
2013-10-05 18:30:00,60.3,46.4,30.17,NNE,12,0.0,4.0,60,0.00,,---,0.00,0.00,VWS V14.01,2013-10-06 01:30:00,
2013-10-05 18:35:00,60.0,46.1,30.17,NNE,23,0.0,6.0,60,0.00,,---,0.00,0.00,VWS V14.01,2013-10-06 01:35:00,
2013-10-05 18:40:00,59.7,46.2,30.16,NNE,23,0.0,6.0,61,0.00,,---,0.00,0.00,VWS V14.01,2013-10-06 01:40:00,
2013-10-05 18:45:00,59.4,46.4,30.17,NNE,23,1.0,6.0,62,0.00,,---,0.00,0.00,VWS V14.01,2013-10-06 01:45:00,
2013-10-05 18:50:00,59.0,46.0,30.17,NNE,23,1.0,6.0,62,0.00,,---,0.00,0.00,VWS V14.01,2013-10-06 01:50:00,
2013-10-05 18:55:00,59.0,46.4,30.17,NNE,26,1.0,8.0,63,0.00,,---,0.00,0.00,VWS V14.01,2013-10-06 01:55:00,
2013-10-05 19:00:00,58.6,46.1,30.17,NNE,28,4.0,5.0,63,0.00,,---,0.00,0.00,VWS V14.01,2013-10-06 02:00:00,
2013-10-05 19:05:00,58.5,46.4,30.17,NNE,28,1.0,6.0,64,0.00,,---,0.00,0.00,VWS V14.01,2013-10-06 02:05:00,
2013-10-05 19:10:00,58.3,46.6,30.17,NNE,26,0.0,7.0,65,0.00,,---,0.00,0.00,VWS V14.01,2013-10-06 02:10:00,
2013-10-05 19:15:00,58.1,46.8,30.17,NNE,27,4.0,7.0,66,0.00,,---,0.00,0.00,VWS V14.01,2013-10-06 02:15:00,
2013-10-05 19:20:00,58.0,47.1,30.17,NNE,25,0.0,7.0,67,0.00,,---,0.00,0.00,VWS V14.01,2013-10-06 02:20:00,
2013-10-05 19:25:00,57.8,47.3,30.17,NNE,22,1.0,7.0,68,0.00,,---,0.00,0.00,VWS V14.01,2013-10-06 02:25:00,
2013-10-05 19:30:00,57.6,47.1,30.17,NNE,16,1.0,6.0,68,0.00,,---,0.00,0.00,VWS V14.01,2013-10-06 02:30:00,
2013-10-05 19:35:00,57.4,47.3,30.17,NNE,25,1.0,8.0,69,0.00,,---,0.00,0.00,VWS V14.01,2013-10-06 02:35:00,
2013-10-05 19:40:00,57.2,47.1,30.17,NNE,27,3.0,9.0,69,0.00,,---,0.00,0.00,VWS V14.01,2013-10-06 02:40:00,
2013-10-05 19:45:00,57.0,47.3,30.17,NNE,21,4.0,9.0,70,0.00,,---,0.00,0.00,VWS V14.01,2013-10-06 02:45:00,
2013-10-05 19:50:00,56.8,47.1,30.17,NNE,23,4.0,9.0,70,0.00,,---,0.00,0.00,VWS V14.01,2013-10-06 02:50:00,
2013-10-05 19:55:00,56.7,47.0,30.17,NNE,27,0.0,9.0,70,0.00,,---,0.00,0.00,VWS V14.01,2013-10-06 02:55:00,
2013-10-05 20:00:00,56.5,46.8,30.17,NNE,28,2.0,6.0,70,0.00,,---,0.00,0.00,VWS V14.01,2013-10-06 03:00:00,
2013-10-05 20:05:00,56.3,47.0,30.17,NNE,29,3.0,6.0,71,0.00,,---,0.00,0.00,VWS V14.01,2013-10-06 03:05:00,
2013-10-05 20:10:00,56.1,46.8,30.16,NNE,29,1.0,6.0,71,0.00,,---,0.00,0.00,VWS V14.01,2013-10-06 03:10:00,
2013-10-05 20:15:00,55.8,46.5,30.17,NNE,29,0.0,6.0,71,0.00,,---,0.00,0.00,VWS V14.01,2013-10-06 03:15:00,
2013-10-05 20:20:00,55.6,46.7,30.17,NNE,29,0.0,6.0,72,0.00,,---,0.00,0.00,VWS V14.01,2013-10-06 03:20:00,
2013-10-05 20:25:00,55.4,46.5,30.17,NNE,29,1.0,6.0,72,0.00,,---,0.00,0.00,VWS V14.01,2013-10-06 03:25:00,
2013-10-05 20:30:00,55.1,46.6,30.17,NNE,29,0.0,4.0,73,0.00,,---,0.00,0.00,VWS V14.01,2013-10-06 03:30:00,
2013-10-05 20:35:00,55.0,46.5,30.16,NNE,29,0.0,4.0,73,0.00,,---,0.00,0.00,VWS V14.01,2013-10-06 03:35:00,
2013-10-05 20:40:00,54.8,46.3,30.16,NNE,29,1.0,4.0,73,0.00,,---,0.00,0.00,VWS V14.01,2013-10-06 03:40:00,
2013-10-05 20:45:00,54.5,46.0,30.17,NNE,29,0.0,4.0,73,0.00,,---,0.00,0.00,VWS V14.01,2013-10-06 03:45:00,
2013-10-05 20:50:00,54.4,46.3,30.16,NNE,29,0.0,4.0,74,0.00,,---,0.00,0.00,VWS V14.01,2013-10-06 03:50:00,
2013-10-05 20:55:00,54.2,46.1,30.16,NNE,29,0.0,4.0,74,0.00,,---,0.00,0.00,VWS V14.01,2013-10-06 03:55:00,
2013-10-05 21:00:00,54.1,46.4,30.16,NNE,29,0.0,1.0,75,0.00,,---,0.00,0.00,VWS V14.01,2013-10-06 04:00:00,
2013-10-05 21:01:00,54.0,46.3,30.16,NNE,29,0.0,1.0,75,0.00,,---,0.00,0.00,VWS V14.01,2013-10-06 04:01:00,
2013-10-05 21:06:00,53.9,46.2,30.16,NNE,29,0.0,2.0,75,0.00,,---,0.00,0.00,VWS V14.01,2013-10-06 04:06:00,
2013-10-05 21:11:00,53.7,46.0,30.16,NNE,29,0.0,4.0,75,0.00,,---,0.00,0.00,VWS V14.01,2013-10-06 04:11:00,
2013-10-05 21:16:00,53.5,46.1,30.16,NNE,29,0.0,4.0,76,0.00,,---,0.00,0.00,VWS V14.01,2013-10-06 04:16:00,
2013-10-05 21:21:00,53.3,45.9,30.16,NNE,29,0.0,4.0,76,0.00,,---,0.00,0.00,VWS V14.01,2013-10-06 04:21:00,
2013-10-05 21:26:00,53.2,46.2,30.15,NNE,29,0.0,0.0,77,0.00,,---,0.00,0.00,VWS V14.01,2013-10-06 04:26:00,
2013-10-05 21:30:00,53.2,46.2,30.15,NNE,29,0.0,4.0,77,0.00,,---,0.00,0.00,VWS V14.01,2013-10-06 04:30:00,
2013-10-05 21:31:00,53.0,46.0,30.15,NNE,29,0.0,0.0,77,0.00,,---,0.00,0.00,VWS V14.01,2013-10-06 04:31:00,
2013-10-05 21:36:00,52.8,46.1,30.15,NNE,29,0.0,1.0,78,0.00,,---,0.00,0.00,VWS V14.01,2013-10-06 04:36:00,
2013-10-05 21:41:00,52.6,46.0,30.15,NNE,29,0.0,1.0,78,0.00,,---,0.00,0.00,VWS V14.01,2013-10-06 04:41:00,
2013-10-05 21:46:00,52.4,46.1,30.16,NNE,29,0.0,1.0,79,0.00,,---,0.00,0.00,VWS V14.01,2013-10-06 04:46:00,
2013-10-05 21:51:00,52.3,46.0,30.15,NNE,29,0.0,1.0,79,0.00,,---,0.00,0.00,VWS V14.01,2013-10-06 04:51:00,
2013-10-05 21:56:00,52.2,45.9,30.15,NNE,29,1.0,1.0,79,0.00,,---,0.00,0.00,VWS V14.01,2013-10-06 04:56:00,
2013-10-05 22:00:00,52.2,45.9,30.15,NNE,29,0.0,1.0,79,0.00,,---,0.00,0.00,VWS V14.01,2013-10-06 05:00:00,
2013-10-05 22:01:00,52.0,46.0,30.15,NNE,29,0.0,1.0,80,0.00,,---,0.00,0.00,VWS V14.01,2013-10-06 05:01:00,
2013-10-05 22:06:00,51.9,46.3,30.15,NNE,29,0.0,1.0,81,0.00,,---,0.00,0.00,VWS V14.01,2013-10-06 05:06:00,
2013-10-05 22:11:00,51.8,46.2,30.15,NNE,29,0.0,1.0,81,0.00,,---,0.00,0.00,VWS V14.01,2013-10-06 05:11:00,
2013-10-05 22:16:00,51.8,46.2,30.15,NNE,29,0.0,1.0,81,0.00,,---,0.00,0.00,VWS V14.01,2013-10-06 05:16:00,
2013-10-05 22:21:00,51.7,46.1,30.15,NNE,29,0.0,1.0,81,0.00,,---,0.00,0.00,VWS V14.01,2013-10-06 05:21:00,
2013-10-05 22:26:00,51.5,45.9,30.15,NNE,29,0.0,0.0,81,0.00,,---,0.00,0.00,VWS V14.01,2013-10-06 05:26:00,
2013-10-05 22:30:00,51.6,46.0,30.15,NNE,29,0.0,1.0,81,0.00,,---,0.00,0.00,VWS V14.01,2013-10-06 05:30:00,
2013-10-05 22:31:00,51.5,46.2,30.15,NNE,29,0.0,3.0,82,0.00,,---,0.00,0.00,VWS V14.01,2013-10-06 05:31:00,
2013-10-05 22:36:00,51.3,46.0,30.15,NNE,29,0.0,3.0,82,0.00,,---,0.00,0.00,VWS V14.01,2013-10-06 05:36:00,
2013-10-05 22:41:00,51.3,46.0,30.15,NNE,29,0.0,3.0,82,0.00,,---,0.00,0.00,VWS V14.01,2013-10-06 05:41:00,
2013-10-05 22:46:00,51.2,45.9,30.15,NNE,29,0.0,3.0,82,0.00,,---,0.00,0.00,VWS V14.01,2013-10-06 05:46:00,
2013-10-05 22:51:00,51.1,45.8,30.14,NNE,29,0.0,3.0,82,0.00,,---,0.00,0.00,VWS V14.01,2013-10-06 05:51:00,
2013-10-05 22:56:00,51.0,45.7,30.15,NNE,29,0.0,0.0,82,0.00,,---,0.00,0.00,VWS V14.01,2013-10-06 05:56:00,
2013-10-05 23:00:00,51.0,45.7,30.15,NNE,29,0.0,3.0,82,0.00,,---,0.00,0.00,VWS V14.01,2013-10-06 06:00:00,
2013-10-05 23:01:00,50.8,45.5,30.15,NNE,29,0.0,1.0,82,0.00,,---,0.00,0.00,VWS V14.01,2013-10-06 06:01:00,
2013-10-05 23:06:00,50.7,45.4,30.14,NNE,29,0.0,2.0,82,0.00,,---,0.00,0.00,VWS V14.01,2013-10-06 06:06:00,
2013-10-05 23:11:00,50.6,45.6,30.14,NNE,29,0.0,2.0,83,0.00,,---,0.00,0.00,VWS V14.01,2013-10-06 06:11:00,
2013-10-05 23:16:00,50.5,45.5,30.14,NNE,29,0.0,2.0,83,0.00,,---,0.00,0.00,VWS V14.01,2013-10-06 06:16:00,
2013-10-05 23:21:00,50.5,45.5,30.14,NNE,29,0.0,2.0,83,0.00,,---,0.00,0.00,VWS V14.01,2013-10-06 06:21:00,
2013-10-05 23:26:00,50.4,45.4,30.13,NNE,29,0.0,0.0,83,0.00,,---,0.00,0.00,VWS V14.01,2013-10-06 06:26:00,
2013-10-05 23:30:00,50.5,45.5,30.13,NNE,29,0.0,2.0,83,0.00,,---,0.00,0.00,VWS V14.01,2013-10-06 06:30:00,
2013-10-05 23:31:00,50.4,45.4,30.13,NNE,29,0.0,0.0,83,0.00,,---,0.00,0.00,VWS V14.01,2013-10-06 06:31:00,
2013-10-05 23:36:00,50.3,45.3,30.13,NNE,29,1.0,1.0,83,0.00,,---,0.00,0.00,VWS V14.01,2013-10-06 06:36:00,
2013-10-05 23:41:00,50.2,45.2,30.13,NNE,29,0.0,1.0,83,0.00,,---,0.00,0.00,VWS V14.01,2013-10-06 06:41:00,
2013-10-05 23:46:00,50.1,45.5,30.13,NNE,29,0.0,4.0,84,0.00,,---,0.00,0.00,VWS V14.01,2013-10-06 06:46:00,
2013-10-05 23:51:00,50.0,45.4,30.13,NNE,29,0.0,4.0,84,0.00,,---,0.00,0.00,VWS V14.01,2013-10-06 06:51:00,
2013-10-05 23:56:00,49.9,45.3,30.13,NNE,29,0.0,0.0,84,0.00,,---,0.00,0.00,VWS V14.01,2013-10-06 06:56:00,